Regional Weather Roundup
Issued by NWS

Home | Current Version | Previous Version | Graphics & Text | Print | Product List | Glossary On
Versions: 1 2 3 4 5 6 7 8 9 10 11 12 13 14 15 16 17 18 19 20 21 22 23 24 25 26 27 28 29 30 31 32 33 34 35 36 37 38 39 40 41 42 43 44 45 46 47 48 49 50
000
ASUS43 KDMX 260407
RWRIA

WEATHER ROUNDUP FOR IOWA
NATIONAL WEATHER SERVICE DES MOINES IA
1100 PM CDT MON MAY 25 2015

NOTE: "FAIR" INDICATES FEW OR NO CLOUDS BELOW 12,000 FEET WITH NO
SIGNIFICANT WEATHER AND/OR OBSTRUCTIONS TO VISIBILITY.

* - THESE STATIONS ARE NOT NWS STATIONS...THUS NOT UNDER NWS
QUALITY CONTROL.  THEY ALSO DO NOT REPORT WEATHER SUCH
AS PRECIPITATION OR FOG.

IAZ001>003-012>014-020>022-031>034-043>046-260500-
   NORTHWEST IOWA

CITY           SKY/WX    TMP DP  RH WIND       PRES   REMARKS
CARROLL *      CLOUDY    61  59  94 SE7       29.85S
CHEROKEE *     CLOUDY    66  61  82 S15G24    29.81R
DENISON *      CLOUDY    64  59  82 S15G22    29.81S
LE MARS *      CLEAR     64  61  88 NE5       29.80R
ORANGE CITY *  CLEAR     63  61  94 NE5       29.80R
SHELDON *      CLEAR     63  63 100 NE6       29.79R
SIOUX CITY     CLOUDY    69  57  65 S10       29.78R
SPENCER        CLOUDY    65  60  84 N6        29.80R
STORM LAKE *   LGT RAIN  63  59  88 S16G29    29.84R
$$

IAZ055>058-069>071-079>083-090>094-260500-
   SOUTHWEST IOWA

CITY           SKY/WX    TMP DP  RH WIND       PRES   REMARKS
ATLANTIC *     MOCLDY    64  55  72 SW7       29.83R
AUDUBON *      LGT RAIN  64  57  77 CALM      29.86R
COUNCIL BLFS * PTCLDY    63  63 100 NW6       29.83R
CRESTON *      PTCLDY    61  61 100 SE8       29.85F
HARLAN  *      CLEAR     63  63 100 W8        29.89R
LAMONI           N/A     63  58  83 E3        29.85F
RED OAK *      CLOUDY    64  57  77 S13       29.81S
SHENANDOAH *   PTCLDY    64  59  82 SE13G18   29.82R
$$

IAZ047>049-059>061-072>074-084-260500-
   CENTRAL IOWA

CITY           SKY/WX    TMP DP  RH WIND       PRES   REMARKS
AMES           LGT RAIN  64  59  83 SW17G31   29.87R
ANKENY *       LGT RAIN  63  59  88 CALM      29.86S
CHARITON *     CLOUDY    63  59  88 NW6G13    29.87F
DES MOINES     CLOUDY    64  58  80 SE5       29.85F
GRINNELL*      CLOUDY    70  63  78 SW24G31   29.88R
KNOXVILLE *    LGT RAIN  63  59  88 W10       29.88F
MARSHALLTOWN   CLOUDY    71  65  81 S14       29.82S THUNDER
PELLA *        DRIZZLE   64  61  88 W9        29.89R
PERRY *          N/A     66  56  68 S7        29.85S
$$

IAZ004>006-015-016-023>025-035-036-260500-
   NORTH CENTRAL IOWA

CITY           SKY/WX    TMP DP  RH WIND       PRES   REMARKS
ALGONA *       PTCLDY    66 -36   1 S15       29.82R
CLARION *      LGT RAIN  63  63 100 MISG      29.83R
ESTHERVILLE    CLOUDY    63  59  87 N3        29.80R
FORT DODGE *   CLOUDY    61  54  77 S5        29.84S
MASON CITY     CLOUDY    68  56  65 S13       29.81S
FOREST CITY *  CLEAR     63  59  88 S9        29.80S
IOWA FALLS *   HVY RAIN  66  63  88 SW26G33   29.85R
$$

IAZ007>011-017>019-026>030-037>042-050>054-066-260500-
   NORTHEAST IOWA

CITY           SKY/WX    TMP DP  RH WIND       PRES   REMARKS
CEDAR RAPIDS   PTCLDY    69  65  86 SE5       29.86S
CHARLES CITY * MOCLDY    66  66 100 S18G31    29.81F
CLINTON *      PTCLDY    68  61  77 S10       29.92S
DECORAH *      DRIZZLE   66  64  94 S7G15     29.84R
DUBUQUE        CLEAR     67  61  81 S9        29.90R
MONTICELLO *   CLEAR     70  66  88 S10G16    29.88R
OELWEIN *      MOCLDY    68  64  88 S12       29.86R
WATERLOO       MOCLDY    70  64  81 S9        29.82S
$$

IAZ064-065-067-068-078-260500-
   EAST CENTRAL IOWA

CITY           SKY/WX    TMP DP  RH WIND       PRES   REMARKS
DAVENPORT      PTCLDY    71  61  70 S12       29.90S
IOWA CITY      PTCLDY    71  64  78 SE7       29.88F
MT. PLEASANT * PTCLDY    68  63  83 E3        29.86F
MUSCATINE *    CLEAR     70  64  83 S6        29.88F
QUAD CITIES    CLEAR     67  61  81 SE3       29.89F
$$

IAZ062-063-075>077-085>089-095>099-260500-
   SOUTHEAST IOWA

CITY           SKY/WX    TMP DP  RH WIND       PRES   REMARKS
BURLINGTON     PTCLDY    72  64  76 SE6       29.88F
FAIRFIELD *    CLEAR     68  63  83 SE6       29.86F
FORT MADISON * CLEAR     72  64  78 SE7       29.88F
KEOKUK *       CLEAR     72  64  78 SE7       29.86F
OSKALOOSA *      N/A     68  64  88 S7        29.86F
CENTERVILLE *  PTCLDY    66  66 100 W9        29.88S
OTTUMWA        MOCLDY    69  65  86 S6        29.85F
WASHINGTON *   CLEAR     68  64  88 SE7       29.88F
$$

ABBREVIATIONS USED IN REMARKS
   TC - TEMPERATURES IN CELSIUS
  WCI - WIND CHILL INDEX
   HX - HEAT INDEX
  VSB - VISIBILITY
$$




USA.gov is the U.S. government's official web portal to all federal, state and local government web resources and services.